Regional Weather Roundup
Issued by NWS

Home | Current Version | Previous Version | Graphics & Text | Print | Product List | Glossary On
Versions: 1 2 3 4 5 6 7 8 9 10 11 12 13 14 15 16 17 18 19 20 21 22 23 24 25 26 27 28 29 30 31 32 33 34 35 36 37 38 39 40 41 42 43 44 45 46 47 48 49 50
000
ASUS45 KABQ 250610
RWRNM
NEW MEXICO REGIONAL WEATHER ROUNDUP
NATIONAL WEATHER SERVICE ALBUQUERQUE NM
1200 AM MDT WED MAY 25 2016

NOTE: "FAIR" MEANS FEW OR NO CLOUDS BELOW 12,000 FEET AGL WITH NO
       SIGNIFICANT WEATHER OR OBSTRUCTIONS TO VISION.

      THIS PRODUCT IS RELEASED AS TWO VERSIONS.  ONE VERSION NEAR
      THE TOP OF THE HOUR CONTAINING PRELIMINARY DATA FROM ALBUQUERQUE
      AND OTHER STATIONS.  A FINAL VERSION WITH ADDITIONAL DATA IS
      ISSUED ABOUT 10 MINUTES AFTER THE HOUR.

NMZ501-503-504-510>518-250700-
NORTHWEST PLATEAU/NORTHCENTRAL MOUNTAINS

CITY           SKY/WX    TMP DP  RH WIND       PRES   REMARKS
FARMINGTON     FAIR      56  32  40 SW9       30.03R
6HR MIN TEMP:  56; 6HR MAX TEMP:  76;

LOS ALAMOS     FAIR      59   7  12 W22G35    30.11R
SANTA FE       FAIR      53  10  18 SE6       30.07R
6HR MIN TEMP:  53; 6HR MAX TEMP:  78;

TAOS           FAIR      54  12  19 S8        30.13R
ANGEL FIRE     FAIR      44  18  35 CALM      30.18S

$$
NMZ402-403-502-505>509-250700-
WESTCENTRAL MOUNTAINS/SOUTHWEST MOUNTAINS

CITY           SKY/WX    TMP DP  RH WIND       PRES   REMARKS
GALLUP         FAIR      52  12  20 SW7       30.13R
6HR MIN TEMP:  52; 6HR MAX TEMP:  70;

GRANTS         FAIR      49   8  19 NW14      30.14R
SILVER CITY      N/A     55  16  21 NW7       30.12S

$$
NMZ407-409-411-412-250700-
SOUTHERN DESERTS

CITY           SKY/WX    TMP DP  RH WIND       PRES   REMARKS
LORDSBURG      FAIR      64  12  13 CALM      30.06R
DEMING         FAIR      70  19  14 W14       30.04S
6HR MIN TEMP:  68; 6HR MAX TEMP:  86;

LAS CRUCES     FAIR      68  15  13 SW10      30.04S
HOLLOMAN AFB   FAIR      69  20  15 S9        29.99R
ALAMOGORDO     FAIR      64  19  17 S8        30.01R
T OR C         FAIR      66  19  16 W7        30.02R
6HR MIN TEMP:  66; 6HR MAX TEMP:  84;


$$
NMZ519>523-250700-
CENTRAL VALLEYS/CENTRAL HIGHLANDS

CITY           SKY/WX    TMP DP  RH WIND       PRES   REMARKS
ALBUQUERQUE    FAIR      65  12  12 CALM      30.06R
6HR MIN TEMP:  61; 6HR MAX TEMP:  83;

DOUBLE EAGLE   FAIR      54  13  20 W10       30.08R
MORIARTY ARPT  FAIR      53  11  19 CALM      30.10R
6HR MIN TEMP:  51; 6HR MAX TEMP:  78;

CLINES CORNERS FAIR      53  12  19 W16       30.11S
6HR MIN TEMP:  53; 6HR MAX TEMP:  73;

BELEN          FAIR      58  11  16 SW7       30.05R
6HR MIN TEMP:  58; 6HR MAX TEMP:  83;

SOCORRO        FAIR      64  18  17 SW9       30.01S
6HR MIN TEMP:  64; 6HR MAX TEMP:  83;


$$
NMZ524>526-539-540-250700-
SOUTHCENTRAL MOUNTAINS

CITY           SKY/WX    TMP DP  RH WIND       PRES   REMARKS
RUIDOSO          N/A     55  16  21 SW7       30.17R

$$
NMZ527>531-250700-
NORTHEAST HIGHLANDS/NORTHEAST PLAINS

CITY           SKY/WX    TMP DP  RH WIND       PRES   REMARKS
LAS VEGAS      FAIR      55  13  18 W8        30.08R
6HR MIN TEMP:  52; 6HR MAX TEMP:  73;

RATON          FAIR      55  24  30 S13       29.98S
6HR MIN TEMP:  52; 6HR MAX TEMP:  77;

CLAYTON        FAIR      59  25  27 W10       29.90S
6HR MIN TEMP:  58; 6HR MAX TEMP:  84;


$$
NMZ532>537-250700-
EASTCENTRAL PLAINS

CITY           SKY/WX    TMP DP  RH WIND       PRES   REMARKS
TUCUMCARI      FAIR      67  22  18 SW12      29.89S
6HR MIN TEMP:  67; 6HR MAX TEMP:  90;

CANNON AFB     FAIR      58  30  34 SW6       29.95S
6HR MIN TEMP:  58; 6HR MAX TEMP:  88;

CLOVIS AIRPORT FAIR      61  30  31 W12       29.95S

$$
NMZ028-029-538-250700-
SOUTHEAST PLAINS

CITY           SKY/WX    TMP DP  RH WIND       PRES   REMARKS
ROSWELL        FAIR      69  18  14 W10       29.93R
6HR MIN TEMP:  65; 6HR MAX TEMP:  93;

ARTESIA        FAIR      66  16  14 W14       29.95S
CARLSBAD       FAIR      66  18  15 W8        29.93S
6HR MIN TEMP:  64; 6HR MAX TEMP:  92;

HOBBS          FAIR      64  36  34 S7        29.98S


$$




USA.gov is the U.S. government's official web portal to all federal, state and local government web resources and services.